Weather History for Santa Ynez, CA

Change the Weather History Date:

Saturday, August 17, 2013

  Actual Average (KSBA) Record (KSBA)
Temperature  
Mean Temperature 70 °F 66 °F  
Max Temperature 87 °F 74 °F 85 °F (1992)
Min Temperature 53 °F 58 °F 51 °F (1978)
Degree Days  
Heating Degree Days 0 1  
Month to date heating degree days 17  
Since 1 June heating degree days 134  
Since 1 July heating degree days 44  
Cooling Degree Days 5 2  
Month to date cooling degree days 34  
Year to date cooling degree days 106  
Since 1 June cooling degree days 92  
Growing Degree Days 20 (Base 50)    
Moisture  
Dew Point 53 °F    
Average Humidity 71    
Maximum Humidity 100    
Minimum Humidity 29    
Precipitation  
Precipitation 0.00 in 0.01 in 0.26 in (1977)
Month to date precipitation 0.06  
Year to date precipitation 12.14  
Since 1 July precipitation 0.09  
Sea Level Pressure  
Sea Level Pressure 29.93 in    
Wind  
Wind Speed 4 mph (West)    
Max Wind Speed 17 mph    
Max Gust Speed -    
Visibility 9 miles    
Events      
T = Trace of Precipitation, MM = Missing Value Source: NWS Daily Summary

Daily Weather History Graph

Daily Weather History Graph

Search for Another Location

Airport:

Trip Planner

Search our weather history database for the weather conditions in past years. The results will help you decide how hot, cold, wet, or windy it might be!

Date:

Astronomy

Aug. 17, 2013 Rise Set
Actual Time 6:22 AM PDT 7:45 PM PDT
Civil Twilight 5:56 AM PDT 8:11 PM PDT
Nautical Twilight 5:24 AM PDT 8:43 PM PDT
Astronomical Twilight 4:51 AM PDT 9:16 PM PDT
Moon 5:01 PM PDT (8/17) 2:35 AM PDT (8/17)
Length of Visible Light 14h 15m
Length of Day
13h 22m
Waxing Gibbous, 85% of the Moon is Illuminated
Aug 17
Waxing Gibbous
Aug 20
Full
Aug 28
Last Quarter
Sep 5
New
Sep 12
First Quarter

Hourly Weather History & Observations

Time (PDT) Temp. Dew Point Humidity Pressure Visibility Wind Dir Wind Speed Gust Speed Precip Events Conditions
12:15 AM 57.2 °F 53.6 °F 88% 29.98 in 10.0 mi WSW 4.6 mph - N/A   Clear
12:35 AM 55.4 °F 53.6 °F 94% 29.98 in 10.0 mi WSW 3.5 mph - N/A   Clear
12:55 AM 55.4 °F 53.6 °F 94% 29.98 in 10.0 mi Calm Calm - N/A   Clear
1:15 AM 55.4 °F 53.6 °F 94% 29.97 in 10.0 mi Calm Calm - N/A   Clear
1:35 AM 55.4 °F 53.6 °F 94% 29.97 in 10.0 mi Calm Calm - N/A   Clear
1:55 AM 55.4 °F 53.6 °F 94% 29.97 in 10.0 mi Calm Calm - N/A   Clear
2:15 AM 55.4 °F 53.6 °F 94% 29.97 in 10.0 mi Calm Calm - N/A   Clear
2:35 AM 55.4 °F 51.8 °F 88% 29.96 in 10.0 mi Calm Calm - N/A   Clear
2:55 AM 53.6 °F 51.8 °F 94% 29.96 in 3.0 mi Calm Calm - N/A   Mostly Cloudy
3:15 AM 53.6 °F 53.6 °F 100% 29.97 in 3.0 mi WSW 3.5 mph - N/A   Overcast
3:35 AM 53.6 °F 53.6 °F 100% 29.97 in 5.0 mi West 4.6 mph - N/A   Overcast
3:55 AM 53.6 °F 53.6 °F 100% 29.97 in 7.0 mi West 3.5 mph - N/A   Overcast
4:15 AM 53.6 °F 53.6 °F 100% 29.97 in 3.0 mi WSW 3.5 mph - N/A   Overcast
4:35 AM 53.6 °F 51.8 °F 94% 29.96 in 1.8 mi Calm Calm - N/A   Overcast
4:55 AM 53.6 °F 51.8 °F 94% 29.96 in 1.0 mi Calm Calm - N/A   Overcast
5:15 AM 53.6 °F 51.8 °F 94% 29.97 in 4.0 mi Calm Calm - N/A   Overcast
5:35 AM 53.6 °F 53.6 °F 100% 29.97 in 5.0 mi Calm Calm - N/A   Overcast
5:55 AM 53.6 °F 53.6 °F 100% 29.97 in 10.0 mi Calm Calm - N/A   Overcast
6:15 AM 53.6 °F 51.8 °F 94% 29.98 in 7.0 mi Calm Calm - N/A   Overcast
6:35 AM 53.6 °F 51.8 °F 94% 29.98 in 7.0 mi Calm Calm - N/A   Overcast
6:55 AM 53.6 °F 51.8 °F 94% 29.98 in 4.0 mi Calm Calm - N/A   Overcast
7:15 AM 53.6 °F 53.6 °F 100% 29.98 in 5.0 mi Calm Calm - N/A   Overcast
7:35 AM 53.6 °F 53.6 °F 100% 29.98 in 3.0 mi Calm Calm - N/A   Overcast
7:55 AM 53.6 °F 53.6 °F 100% 29.98 in 7.0 mi SW 3.5 mph - N/A   Overcast
8:15 AM 55.4 °F 53.6 °F 94% 29.99 in 10.0 mi Calm Calm - N/A   Overcast
8:35 AM 55.4 °F 53.6 °F 94% 29.99 in 10.0 mi Calm Calm - N/A   Overcast
8:55 AM 55.4 °F 51.8 °F 88% 29.98 in 10.0 mi Calm Calm - N/A   Mostly Cloudy
9:15 AM 59.0 °F 53.6 °F 82% 29.98 in 10.0 mi West 3.5 mph - N/A   Scattered Clouds
9:35 AM 60.8 °F 51.8 °F 72% 29.97 in 10.0 mi Calm Calm - N/A   Clear
9:55 AM 64.4 °F 53.6 °F 68% 29.97 in 10.0 mi Calm Calm - N/A   Clear
10:15 AM 68.0 °F 53.6 °F 60% 29.96 in 10.0 mi Calm Calm - N/A   Clear
10:35 AM 69.8 °F 53.6 °F 56% 29.96 in 10.0 mi West 4.6 mph - N/A   Clear
10:55 AM 73.4 °F 53.6 °F 50% 29.95 in 10.0 mi West 3.5 mph - N/A   Clear
11:15 AM 75.2 °F 53.6 °F 47% 29.95 in 10.0 mi West 3.5 mph - N/A   Clear
11:35 AM 78.8 °F 51.8 °F 39% 29.94 in 10.0 mi West 5.8 mph - N/A   Clear
11:55 AM 80.6 °F 50.0 °F 34% 29.93 in 10.0 mi NW 6.9 mph - N/A   Clear
12:15 PM 82.4 °F 50.0 °F 32% 29.93 in 10.0 mi West 8.1 mph - N/A   Clear
12:35 PM 86.0 °F 50.0 °F 29% 29.92 in 10.0 mi West 10.4 mph - N/A   Clear
12:55 PM 86.0 °F 51.8 °F 31% 29.92 in 10.0 mi West 10.4 mph - N/A   Clear
1:15 PM 87.8 °F 51.8 °F 29% 29.91 in 10.0 mi WNW 10.4 mph - N/A   Clear
1:35 PM 87.8 °F 51.8 °F 29% 29.91 in 10.0 mi WNW 11.5 mph - N/A   Clear
1:55 PM 86.0 °F 51.8 °F 31% 29.90 in 10.0 mi West 12.7 mph - N/A   Clear
2:15 PM 86.0 °F 51.8 °F 31% 29.89 in 10.0 mi West 15.0 mph - N/A   Clear
2:35 PM 84.2 °F 51.8 °F 33% 29.89 in 10.0 mi WNW 15.0 mph - N/A   Clear
2:55 PM 82.4 °F 51.8 °F 35% 29.89 in 10.0 mi WNW 17.3 mph - N/A   Clear
3:15 PM 82.4 °F 51.8 °F 35% 29.89 in 10.0 mi West 13.8 mph - N/A   Clear
3:35 PM 82.4 °F 51.8 °F 35% 29.88 in 10.0 mi WNW 15.0 mph - N/A   Clear
3:55 PM 82.4 °F 51.8 °F 35% 29.88 in 10.0 mi WNW 12.7 mph - N/A   Clear
4:15 PM 80.6 °F 51.8 °F 37% 29.87 in 10.0 mi West 13.8 mph - N/A   Clear
4:35 PM 80.6 °F 51.8 °F 37% 29.87 in 10.0 mi West 10.4 mph - N/A   Clear
4:55 PM 80.6 °F 51.8 °F 37% 29.86 in 10.0 mi West 9.2 mph - N/A   Clear
5:15 PM 78.8 °F 53.6 °F 42% 29.86 in 10.0 mi West 11.5 mph - N/A   Clear
5:35 PM 77.0 °F 53.6 °F 44% 29.86 in 10.0 mi West 10.4 mph - N/A   Clear
5:55 PM 75.2 °F 53.6 °F 47% 29.86 in 10.0 mi West 11.5 mph - N/A   Clear
6:15 PM 73.4 °F 53.6 °F 50% 29.86 in 10.0 mi West 10.4 mph - N/A   Clear
6:35 PM 71.6 °F 53.6 °F 53% 29.85 in 10.0 mi West 10.4 mph - N/A   Clear
6:55 PM 69.8 °F 53.6 °F 56% 29.86 in 10.0 mi West 12.7 mph - N/A   Clear
7:15 PM 66.2 °F 53.6 °F 64% 29.86 in 10.0 mi West 10.4 mph - N/A   Clear
7:35 PM 62.6 °F 53.6 °F 72% 29.87 in 10.0 mi WSW 8.1 mph - N/A   Clear
7:55 PM 60.8 °F 53.6 °F 77% 29.87 in 10.0 mi WSW 9.2 mph - N/A   Clear
8:15 PM 60.8 °F 53.6 °F 77% 29.87 in 10.0 mi WSW 8.1 mph - N/A   Clear
8:35 PM 59.0 °F 53.6 °F 82% 29.87 in 10.0 mi WSW 6.9 mph - N/A   Clear
8:55 PM 59.0 °F 53.6 °F 82% 29.88 in 10.0 mi West 8.1 mph - N/A   Clear
9:15 PM 59.0 °F 53.6 °F 82% 29.89 in 10.0 mi West 5.8 mph - N/A   Clear
9:35 PM 59.0 °F 53.6 °F 82% 29.90 in 10.0 mi WSW 6.9 mph - N/A   Clear
9:55 PM 57.2 °F 53.6 °F 88% 29.90 in 10.0 mi WSW 5.8 mph - N/A   Clear
10:15 PM 57.2 °F 53.6 °F 88% 29.90 in 10.0 mi West 4.6 mph - N/A   Clear
10:35 PM 55.4 °F 53.6 °F 94% 29.90 in 10.0 mi West 5.8 mph - N/A   Clear
10:55 PM 55.4 °F 53.6 °F 94% 29.90 in 10.0 mi WSW 4.6 mph - N/A   Clear
11:15 PM 55.4 °F 53.6 °F 94% 29.90 in 10.0 mi West 4.6 mph - N/A   Clear
11:35 PM 55.4 °F 53.6 °F 94% 29.90 in 10.0 mi West 3.5 mph - N/A   Scattered Clouds
11:55 PM 55.4 °F 53.6 °F 94% 29.90 in 10.0 mi West 3.5 mph - N/A   Scattered Clouds